Miscellaneous Local Product
Issued by NWS Hastings, NE

Home | Current Version | Previous Version | Text Only | Print | Product List | Glossary Off
Versions: 1 2 3 4 5 6 7 8 9 10 11 12 13 14 15 16 17 18 19 20 21 22 23 24 25 26 27 28 29 30 31 32 33 34 35 36 37 38 39 40 41 42 43 44 45 46 47 48 49 50

000
AXUS43 KGID 062202
MISGRI

GID CWA HOURLY WEATHER ROUNDUP
NATIONAL WEATHER SERVICE HASTINGS NE
400 PM CST FRI MAR 06 2015

NOTE: "FAIR" INDICATES FEW OR NO CLOUDS BELOW 12,000 FEET WITH NO
SIGNIFICANT WEATHER AND/OR OBSTRUCTIONS TO VISIBILITY.

...SOUTH CENTRAL NEBRASKA...

CITY           SKY/WX    TMP DP  RH WIND       PRES   REMARKS
GRAND ISLAND   SUNNY     62  17  17 W16G23    30.14S
HASTINGS       SUNNY     62  15  16 W14       30.14F
KEARNEY        SUNNY     63  19  19 W14G20    30.14F
ORD            SUNNY     62  13  14 W17G24    30.10F
YORK           SUNNY     63  18  17 W17       30.13F
AURORA         SUNNY     63  15  16 W17G23    30.13S
LEXINGTON      SUNNY     63  17  17 NW15G23   30.14F
HOLDREGE       SUNNY     62  15  16 NW14      30.15S
HEBRON         SUNNY     63   2   9 W10G20    30.16S

...NEBRASKA PANHANDLE...

CITY           SKY/WX    TMP DP  RH WIND       PRES   REMARKS
CHADRON        SUNNY     54  22  28 W18G28    30.15F
ALLIANCE       SUNNY     57  15  19 NW21      30.16S
SCOTTSBLUFF    SUNNY     57  17  21 W20G30    30.19F
SIDNEY         SUNNY     56  16  20 NW21      30.21R

...WESTERN AND NORTH CENTRAL NEBRASKA...

CITY           SKY/WX    TMP DP  RH WIND       PRES   REMARKS
VALENTINE      PTSUNNY   59  19  21 W13       30.10S
AINSWORTH      PTSUNNY   57  17  20 NW14G24   30.10S
ONEILL         MOSUNNY   60  16  18 NW13      30.10S
BROKEN BOW     SUNNY     63  19  18 NW17G25   30.11F
IMPERIAL         N/A     61  14  16 W13       30.17F
NORTH PLATTE   SUNNY     63  14  15 W17G26    30.14F
MCCOOK         SUNNY     66  15  14 W14G20    30.16F

...EASTERN NEBRASKA...

CITY           SKY/WX    TMP DP  RH WIND       PRES   REMARKS
NORFOLK        SUNNY     62  14  15 W12       30.08F
SO SIOUX CITY  MOSUNNY   57  22  25 NW15      30.10R
TEKAMAH        MOSUNNY   63  21  20 W17G23    30.09S
COLUMBUS       SUNNY     63  16  16 W12       30.12F
ALBION         SUNNY     62  13  14 NW17G25   30.11S
OMAHA EPPLEY   MOSUNNY   62  17  17 W20G29    30.11S
OFFUTT AFB     SUNNY     62  17  17 W9        30.11S
MILLARD        SUNNY     63  16  16 W17G23    30.11S
LINCOLN        SUNNY     63  13  14 W17       30.14F
NEBRASKA CITY  SUNNY     62   2   9 W15       30.15S
BEATRICE       SUNNY     62  15  16 W13G21    30.15S
FALLS CITY     SUNNY     62  18  18 W16       30.17F

...NORTHERN KANSAS...

CITY           SKY/WX    TMP DP  RH WIND       PRES   REMARKS
GOODLAND       SUNNY     60  16  18 W13G22    30.22S
HILL CITY      SUNNY     66  14  13 NW13      30.19F
NORTON         CLEAR     63   9  12 W15G22    30.17
PHILLIPSBURG   SUNNY     66  16  14 W15       30.18S
SMITH CENTER   SUNNY     63  18  17 W15       30.18S
BELOIT         SUNNY     66  14  13 W16G22    30.18S
HAYS           SUNNY     66  16  14 W12G17    30.20F
RUSSELL        SUNNY     65  15  14 W10G18    30.18F
CONCORDIA      SUNNY     64  18  17 W14G22    30.17F
SALINA         SUNNY     67  14  13 W17       30.20F
TOPEKA         SUNNY     62  17  17 W12G18    30.22F



USA.gov is the U.S. government's official web portal to all federal, state and local government web resources and services.